CZ-3A DEB, 40813

Orbit data source: Space-Track

CZ-3A DEB, 40813 is space debris in HEO originally from a launch on Fri, 02 Feb 2007 UTC launched from the Xichang Space Center, China (XSC). Debris objects in space refer to the collection of defunct objects orbiting the Earth. Examples of debris include non-operational satellites, rocket bodies, and fragments generated from explosions, collisions, or faulty payload assembly.

Loading next visibility...
Identifier
40813, 2007-003AS
Orbit
HEO
Country
Flag of CNCN / PRC
Related business
Manufacturer
Unknown
Mission
Spacecraft
Bus & Motor
Unknown
Mass
Unknown
Launch date (UTC)
2007-02-02 (19 years ago)
Launch vehicle
Unknown
Launch site
Xichang Space Center, China (XSC)
Object type
Payload
Rocket body
Debris
Shape & HBR
Unknown shape, 0.3 m
Radar Cross Section
Medium (>0.1 m² and <1 m²)

Expand to show TLE details & history
Last TLE update: 23 hours ago

TLE from 23 hours ago
0 CZ-3A DEB
1 40813U 07003AS  26035.39224306  .00000138  00000-0  10241-2 0  9993
2 40813  26.3796  91.1220 7670432 140.8343 312.6304  1.72438867 82171
Epoch: 2026-02-04T09:24Z
TLE epoch observation values (Epoch: 2026-02-04T09:24:49.800Z)
Latitude
0.00002°
Longitude
175.39573°
Altitude
23,479.423 km
Speed
3.624 km/s
True Right ascension
06h 04m 39s
True Declination
0° 00' 00"
Sunlit
Object was in daylight at epoch
Visualization orbit readout
Latitude
Unknown
Longitude
Unknown
Altitude
Unknown
Speed
Unknown
Apparent Right ascension
Unknown
Apparent Declination
Unknown
Sunlit
N/A
Visualization observer readout
Local Sidereal Time
10:11:15
Azimuth
Unknown
Elevation
Unknown
Doppler factor
Unknown
Orbital elements
Apogee altitude
45,535.913 km
Perigee altitude
465.912 km
Semi-major axis
29,379.05 km
Eccentricity
0.76704
Inclination
26.3796°
RAAN
91.122°
Arg. of periapsis
140.8343°
True anomaly
219.07989°
Mean anomaly
312.6304°
Eccentric anomaly
268.69349°
Mean motion
0.43101 °/min
Orbital period
835.25 mins
BSTAR
0.0010241
Loading maneuver chart data...
Computing Atmospheric mass density...
Loading historical data...
Loading historical data...
Loading historical data...
Loading historical data...
Loading historical data...
Loading historical data...
Loading historical data...

Documentation

Showing up to 5 results
|